Terminal Aerodrome Forecast
Issued by NWS

Home | Current Version | Previous Version | Text Only | Print | Product List | Glossary On
Versions: 1 2 3 4 5 6 7 8 9 10 11 12 13 14
000
FTUS42 TJSJ 310520
TAFIST
TAF
TIST 310520Z 3106/0106 07012KT P6SM VCSH SCT025 BKN050
     FM310800 08013G19KT P6SM VCTS SCT020CB BKN050 OVC100
     FM311300 08018G25KT P6SM -TSRA BKN025CB BKN040
     FM312100 11020G26KT P6SM -RA OVC040=

USA.gov is the U.S. government's official web portal to all federal, state and local government web resources and services.